Location: Winthrop
(48.4780°N, 120.1850°W)
Time: 11:43:49
(UTC-07:00)

NANOSAT C BR1 - Visible Passes

Search period start: 16 May 2022 00:00
Search period end: 26 May 2022 00:00
Orbit: 584 x 602 km, 98.0° (Epoch: 15 May)

Date Brightness Start Highest point End Pass type
(mag) Time Alt. Az. Time Alt. Az. Time Alt. Az.
16 May ? 01:53:15 10° ENE 01:55:16 13° E 01:57:11 10° ESE visible
16 May ? 03:27:09 10° N 03:31:17 67° WNW 03:33:47 23° SSW visible
17 May ? 02:01:43 10° NE 02:04:20 16° E 02:06:19 12° ESE visible
17 May ? 03:36:10 10° N 03:40:14 54° WNW 03:42:56 20° SW visible
18 May ? 02:10:20 10° NE 02:13:24 20° E 02:15:27 14° SE visible
18 May ? 03:45:13 10° N 03:49:11 44° WNW 03:52:03 17° SW visible
19 May ? 02:19:02 10° NE 02:22:26 24° E 02:24:34 16° SE visible
19 May ? 03:54:17 10° N 03:58:06 36° WNW 04:01:11 14° SW visible
20 May ? 02:27:49 10° NE 02:31:27 29° E 02:33:40 18° SE visible
20 May ? 04:03:21 10° N 04:07:00 30° WNW 04:10:17 12° SW visible
21 May ? 02:36:38 10° NNE 02:40:28 35° E 02:42:47 20° SSE visible
21 May ? 04:12:28 10° N 04:15:53 25° WNW 04:19:17 10° WSW visible
22 May ? 02:45:27 10° NNE 02:49:26 43° E 02:51:52 21° SSE visible
22 May ? 04:21:36 10° NNW 04:24:44 21° WNW 04:27:52 10° WSW visible
23 May ? 02:54:19 10° NNE 02:58:24 54° E 03:00:57 21° S visible
23 May ? 04:30:46 10° NNW 04:33:35 18° WNW 04:36:23 10° WSW visible
24 May ? 03:03:12 10° NNE 03:07:20 67° ESE 03:10:01 21° S visible
25 May ? 03:12:06 10° NNE 03:16:16 83° ESE 03:19:05 20° S visible
